This is the latest recevied weather packets stored in our database for station/object CE3TL-WX. If no packets are shown the sender has not sent any weather packets the latest 10 day(s).
| Time | Temp. | Humidity | Pressure | Rain* | Wind** | Luminosity | Snow |
|---|---|---|---|---|---|---|---|
| 1788146487 | 49° F | 100% | 771 mmHg | - | - | - | - |
| 1788145953 | 49° F | 100% | 772 mmHg | - | - | - | - |
| 1788145418 | 49° F | 100% | 772 mmHg | - | - | - | - |
| 1788144884 | 49° F | 99% | 771.7 mmHg | - | - | - | - |
| 1788144349 | 49° F | 99% | 771.4 mmHg | - | - | - | - |
| 1788143815 | 49° F | 97% | 771.2 mmHg | - | - | - | - |
| 1788143280 | 49° F | 96% | 771.1 mmHg | - | - | - | - |
| 1788142746 | 50° F | 98% | 771.1 mmHg | - | - | - | - |
| 1788142212 | 50° F | 97% | 771.5 mmHg | - | - | - | - |
| 1788141677 | 51° F | 96% | 771.5 mmHg | - | - | - | - |
| 1788141143 | 50° F | 96% | 771.4 mmHg | - | - | - | - |
| 1788140609 | 50° F | 95% | 771 mmHg | - | - | - | - |
| 1788140075 | 50° F | 93% | 770.5 mmHg | - | - | - | - |
| 1788139540 | 50° F | 96% | 770 mmHg | - | - | - | - |
| 1788139006 | 51° F | 98% | 770.7 mmHg | - | - | - | - |
| 1788138472 | 52° F | 95% | 770.8 mmHg | - | - | - | - |
| 1788137938 | 52° F | 93% | 770.8 mmHg | - | - | - | - |
| 1788137404 | 52° F | 93% | 770.6 mmHg | - | - | - | - |
| 1788136869 | 52° F | 92% | 770.2 mmHg | - | - | - | - |
| 1788136336 | 52° F | 91% | 769.8 mmHg | - | - | - | - |
| 1788135802 | 52° F | 92% | 769.6 mmHg | - | - | - | - |
| 1788135268 | 52° F | 89% | 769.4 mmHg | - | - | - | - |
| 1788134734 | 53° F | 83% | 770.2 mmHg | - | - | - | - |
| 1788134199 | 55° F | 73% | 770.2 mmHg | - | - | - | - |
| 1788133666 | 55° F | 66% | 769.7 mmHg | - | - | - | - |
* Rain since midnight (hover to see other rain measurements)
** Current wind speed in m/s (hover to see current wind gust speed)